Location: Proctor
(47.8934°N, 114.3048°W)
Time: 17:25:31
(UTC+00:00)

Courier 1B Rocket - Pass Details

Date: 14 June 2024
Orbit: 920 x 1201 km, 28.2° (Epoch: 16 July)

Event Time Altitude Azimuth Distance (km) Brightness Sun altitude
Rises 17:13:35 0° 246° (WSW) 4,079 8.0 52.3°
Reaches altitude 10° 17:18:42 10° 218° (SW) 3,127 7.7 53.1°
Maximum altitude 17:21:23 12° 197° (SSW) 2,971 7.8 53.5°
Drops below altitude 10° 17:24:03 10° 177° (S) 3,117 8.1 53.9°
Sets 17:29:08 0° 149° (SSE) 4,048 8.7 54.6°
